HYLAS 4

Last updated on Thu Sep 10 2026 00:02:59 GMT+0000 (Coordinated Universal Time)

1 43272U 18033B 26252.22251867 -.00000255 00000+0 00000+0 0 9994 2 43272 0.0785 270.7275 0000967 292.7762 191.3597 1.00271575 30902
UTC large
Height (km)
Speed (km/s)
/
Latitude / Longitude
Inclination (degrees)
Orbital Period (minutes)
Azimuth
Elevation
Range (km)
Doppler Factor

Next 0 passes for location: London (51.5072 / 0.1276)

No passes found over London.
HYLAS 4